SCP
0 0 0 0 0 0 0 0 0 0 0 0 0 0 0 0 0 0 0 0 0 0 0 0 0 0 0 0 0 0 0 0 0 0 0 0 0 0 0 0 0 0 0
0 0 1 1 1 0 0 0 0 0 0 0 0 0 0 0 0 0 0 0 0 0 0 0 0 0 0 0 0 0 0 0 0 0 0 0 0 0 0 0 0 0 0
0 0 1 1 1 1 1 0 0 0 0 0 0 0 0 0 0 0 0 0 0 0 0 0 0 0 0 0 0 0 0 0 0 0 0 0 0 0 0 0 0 0 0
0 0 1 1 1 1 1 1 0 0 0 0 0 0 0 0 0 0 0 0 0 0 0 0 0 0 0 0 0 0 0 0 0 0 0 0 0 0 0 0 0 0 0
0 0 1 1 1 1 1 1 0 0 0 0 0 0 0 0 0 0 0 0 0 0 0 0 0 0 0 0 0 0 0 0 0 0 0 0 0 0 0 0 0 0 0
0 0 1 1 1 1 1 1 1 0 0 0 0 0 0 0 0 0 0 0 0 0 0 0 0 0 0 0 0 0 0 0 0 0 0 0 0 0 0 0 0 0 0
0 0 1 1 1 1 1 1 1 0 0 0 0 0 0 0 0 0 0 0 0 0 0 0 0 0 0 0 0 0 0 0 0 0 0 0 0 0 0 0 0 0 0
0 0 1 1 1 1 1 1 1 0 0 0 0 0 0 0 0 0 0 0 0 0 0 0 0 0 0 0 0 0 0 0 0 0 0 0 0 0 0 0 0 0 0
0 0 1 1 1 1 1 1 1 1 0 0 0 0 0 0 0 0 0 0 0 0 0 0 0 0 0 0 0 0 0 0 0 0 0 0 0 0 0 0 0 0 0
0 0 1 1 1 1 1 1 1 1 0 0 0 0 0 0 0 0 0 0 0 0 0 0 0 0 0 0 0 0 0 0 0 0 0 0 0 0 0 0 0 0 0
0 0 0 0 0 0 0 0 0 0 0 0 0 0 0 0 0 0 0 0 0 0 0 0 0 0 0 0 0 0 0 0 0 0 0 0 0 0 0 0 0 0 0
0 0 0 0 0 0 0 0 0 0 0 0 0 0 0 0 0 0 0 0 0 0 0 0 0 0 0 0 0 0 0 0 0 0 0 0 0 0 0 0 0 0 0
0 0 0 0 0 0 0 0 0 0 0 0 0 0 0 0 0 0 0 0 0 0 0 0 0 0 0 0 0 0 0 0 0 0 0 0 0 0 0 0 0 0 0
0 0 0 0 0 0 0 0 0 0 0 0 0 0 0 0 0 0 0 0 0 0 0 0 0 0 0 0 0 0 0 0 0 0 0 0 0 0 0 0 0 0 0
0 0 0 0 0 0 0 0 0 0 0 0 0 0 0 0 0 0 0 0 0 0 0 0 0 0 0 0 0 0 0 0 0 0 0 0 0 0 0 0 0 0 0
0 0 0 0 0 0 0 0 0 0 0 0 0 0 0 0 0 0 0 0 0 0 0 0 0 0 0 0 0 0 0 0 0 0 0 0 0 0 0 0 0 0 0
0 0 0 0 0 0 0 0 0 0 0 0 0 0 0 0 0 0 0 0 0 0 0 0 0 0 0 0 0 0 0 0 0 0 0 0 0 0 0 0 0 0 0
0 0 0 0 0 0 0 0 0 0 0 0 0 0 0 0 0 0 0 0 0 0 0 0 0 0 0 0 0 0 0 0 0 0 0 0 0 0 0 0 0 0 0
0 0 0 0 0 0 0 0 0 0 0 0 0 0 0 0 0 0 0 0 0 0 0 0 0 0 0 0 0 0 0 0 0 0 0 0 0 0 0 0 0 0 0
0 0 0 0 0 0 0 0 0 0 0 0 0 0 0 0 0 0 0 0 0 0 0 0 0 0 0 0 0 0 0 0 0 0 0 0 0 0 0 0 0 0 0
0 0 0 0 0 0 0 0 0 0 0 0 0 0 0 0 0 0 0 0 0 0 0 0 0 0 0 0 0 0 0 0 0 0 0 0 0 0 0 0 0 0 0
0 0 0 0 0 0 0 0 0 0 0 0 0 0 0 0 0 0 0 0 0 0 0 0 0 0 0 0 0 0 0 0 0 0 0 0 0 0 0 0 0 0 0
0 0 0 0 0 0 0 0 0 0 0 0 0 0 0 0 0 0 0 0 0 0 0 0 0 0 0 0 0 0 0 0 0 0 0 0 0 0 0 0 0 0 0
0 0 0 0 0 0 0 0 0 0 0 0 0 0 0 0 0 0 0 0 0 0 0 0 0 0 0 0 0 0 0 0 0 -0 -0 0 0 0 0 0 0 0 0
0 0 0 0 0 0 0 0 0 0 0 0 0 0 0 0 0 0 0 0 0 0 0 0 0 0 0 0 0 0 0 0 0 0 -0 -0 -0 -0 0 0 0 0 0
0 0 0 0 0 0 0 0 0 0 0 0 0 0 0 0 0 0 0 0 0 0 0 0 0 0 0 0 0 0 0 0 0 0 0 -0 -0 -0 -0 0 0 0 0
Wind_Speed
2 3 6 6 6 6 7 7 7 8 8 8 8 8 8 8 9 9 9 9 9 9 9 9 9 9 9 9 9 9 9 9 9 9 9 9 9 9 9 9 8 5 9
4 4 7 6 6 7 7 7 7 7 7 7 7 8 8 8 8 8 8 9 8 8 8 8 8 8 8 8 8 8 8 8 9 8 8 7 8 8 8 8 8 5 8
4 4 6 7 7 7 7 7 7 7 7 7 7 7 7 7 7 7 8 8 7 7 8 8 8 8 7 7 7 7 8 7 7 7 7 3 4 7 7 7 7 7 7
4 3 5 6 7 7 7 7 6 6 6 6 6 6 7 7 7 7 7 7 7 7 7 7 7 7 7 7 7 7 7 7 6 6 3 2 2 6 6 6 6 6 6
4 2 4 6 6 7 7 6 6 5 5 5 6 6 6 6 6 6 6 6 6 6 6 6 6 6 6 6 6 6 6 6 6 4 3 2 2 5 6 6 5 5 5
4 2 3 5 6 6 6 6 6 5 5 5 5 5 5 6 5 5 5 5 5 6 6 6 5 5 5 6 6 6 6 6 5 3 2 1 1 4 5 5 4 4 4
4 3 3 5 5 5 5 5 5 5 4 4 5 5 4 5 5 5 5 4 5 5 5 5 5 4 4 5 5 5 5 5 3 2 1 1 1 4 4 3 3 3 3
4 3 3 4 4 4 4 4 4 4 4 4 4 4 4 4 4 4 5 4 4 4 5 5 5 4 4 4 4 4 5 4 3 2 1 0 2 3 3 2 2 2 2
4 4 3 3 3 3 2 3 3 3 3 3 3 3 3 3 3 3 4 4 4 4 4 4 4 4 4 3 3 3 4 4 2 2 1 0 2 2 2 2 1 1 1
4 3 3 3 3 3 2 2 2 2 2 2 2 2 2 2 2 3 4 4 4 4 4 4 4 4 3 2 2 2 3 3 2 1 1 1 3 2 2 2 2 2 2
4 3 3 3 3 2 2 2 2 1 1 1 1 1 1 1 1 1 2 3 4 4 4 4 4 4 3 2 1 1 1 1 2 1 1 3 4 3 3 3 3 3 3
2 2 2 2 2 2 2 1 1 0 1 1 1 1 1 1 1 1 1 2 3 3 3 3 3 3 2 1 1 1 0 1 1 2 2 5 5 5 5 4 4 4 4
1 1 2 2 1 1 1 1 1 1 0 0 1 1 1 1 0 1 0 1 2 2 2 2 2 1 1 1 1 1 1 1 1 2 3 6 6 6 6 6 5 5 5
1 1 1 1 1 1 1 0 0 0 0 0 1 1 1 1 1 1 0 1 1 1 1 1 1 2 2 2 2 2 2 2 2 2 3 6 7 7 7 7 6 6 6
0 1 1 1 1 1 0 0 1 0 0 1 1 1 1 1 1 1 1 1 1 1 1 1 1 2 2 3 3 3 3 3 3 3 3 6 7 7 7 7 7 7 7
1 1 1 0 0 1 1 0 0 1 1 1 1 1 1 2 2 2 2 2 1 2 2 2 2 2 2 2 2 3 3 3 3 3 3 4 7 7 8 8 8 8 7
1 1 1 1 0 0 1 1 1 1 1 1 1 1 2 2 2 2 2 2 2 2 2 2 2 1 1 1 2 2 2 3 3 3 3 3 3 6 7 8 8 8 8
1 1 1 1 0 1 1 1 1 1 1 1 1 1 2 2 2 2 2 3 2 2 2 2 2 1 1 1 2 2 2 2 3 4 3 3 3 3 4 6 7 7 7
1 1 1 1 1 1 1 1 1 1 1 1 1 1 2 2 2 3 3 2 2 2 2 3 2 2 2 2 2 2 2 2 3 3 4 4 4 3 3 4 5 6 6
1 1 2 2 1 1 1 1 1 1 1 1 1 2 2 2 2 2 2 3 3 2 2 2 2 2 2 2 1 2 2 3 3 3 4 3 3 4 3 3 3 4 6
0 1 2 1 2 1 0 0 1 1 1 1 2 2 2 2 2 2 2 2 3 3 3 3 2 2 1 1 0 2 3 3 2 3 3 3 3 3 3 4 3 3 3
1 1 2 2 2 2 1 1 1 2 2 2 2 2 2 2 2 2 2 3 3 3 3 3 2 1 1 2 1 0 2 2 2 2 2 2 3 2 3 3 3 2 2
2 3 3 3 3 3 2 1 0 1 1 1 2 2 2 2 3 3 2 3 3 3 3 3 4 3 2 2 2 2 2 3 2 2 2 2 2 2 2 2 3 3 2
4 3 3 3 3 3 2 1 2 2 2 3 2 2 3 3 3 3 2 2 2 2 3 3 3 3 4 3 2 2 2 2 2 2 2 2 2 3 3 2 3 3 3
4 3 3 3 3 3 2 2 2 3 3 2 2 2 3 2 3 3 2 2 2 2 3 3 2 3 3 4 3 2 1 2 2 2 4 3 2 2 2 3 3 3 3
3 3 3 3 3 3 3 3 3 4 3 3 3 3 2 2 2 2 2 2 2 3 3 3 3 4 3 3 3 2 2 2 3 3 3 3 3 3 2 2 2 2 3
Wind_Direction
195 193 145 131 120 114 117 114 108 106 106 105 104 101 101 106 108 108 108 109 110 108 106 104 102 99 96 92 91 88 86 83 81 82 85 88 91 90 92 88 80 74 79
169 173 143 132 124 117 116 113 109 105 105 106 108 108 106 108 112 114 113 111 110 109 108 107 104 101 98 97 96 92 88 86 81 78 77 80 88 91 92 94 90 88 84
137 151 145 130 123 118 114 114 112 107 107 107 108 110 109 108 111 115 117 116 114 111 108 110 108 105 104 102 99 97 96 92 85 80 73 58 78 91 95 98 97 91 89
129 146 148 131 124 118 115 111 115 113 110 111 109 107 109 108 111 115 117 118 118 116 113 110 111 112 112 110 106 102 101 95 89 82 61 48 65 94 98 102 99 96 94
108 130 149 129 127 121 117 112 112 119 115 112 114 112 111 108 112 116 114 115 116 117 117 114 112 119 120 119 113 106 102 97 90 76 62 49 58 103 102 100 98 106 101
95 99 129 123 123 122 119 115 112 112 117 109 107 114 115 115 115 114 112 114 115 114 115 117 120 119 128 127 118 108 101 101 85 81 81 77 74 110 110 106 98 103 104
101 88 110 116 119 116 118 121 120 114 116 120 110 106 114 117 113 117 118 119 120 121 122 123 122 124 127 134 125 108 106 105 86 87 91 98 117 119 115 112 116 110 113
107 90 78 83 100 107 114 128 126 121 122 121 121 112 114 115 114 130 133 130 131 133 130 128 129 128 127 126 124 113 109 102 96 95 95 123 138 132 134 133 135 132 133
88 86 70 65 63 69 96 119 126 122 119 115 117 126 124 125 129 143 141 143 145 142 139 138 134 126 125 116 100 110 108 98 100 107 123 151 156 150 151 165 178 179 172
76 81 74 64 62 54 43 67 98 107 110 99 87 102 101 115 133 154 155 160 156 152 145 148 143 137 132 128 107 104 113 104 125 136 162 195 188 191 194 198 208 212 222
57 55 64 58 54 49 48 41 51 86 91 86 87 64 97 144 155 166 179 171 168 165 162 162 163 153 141 151 155 156 124 140 156 185 198 204 203 209 213 213 216 223 236
57 38 44 53 52 49 42 46 28 7 178 151 121 121 125 115 162 125 192 177 175 177 179 180 183 168 153 179 207 204 172 181 178 205 217 213 214 217 222 222 225 227 236
125 51 34 39 53 69 56 46 14 6 344 171 149 143 132 115 122 86 167 193 181 181 183 194 190 190 202 212 228 232 218 211 205 216 220 221 225 225 227 226 231 233 239
35 34 27 21 24 26 49 64 60 21 6 334 263 177 156 157 166 166 177 210 187 186 189 192 196 218 229 230 230 227 229 226 217 221 221 224 227 228 232 230 232 235 238
28 335 341 350 11 4 11 3 61 50 301 288 283 244 206 194 194 191 195 198 207 189 187 194 208 224 232 234 234 225 225 229 225 225 230 229 231 233 234 236 237 237 238
226 258 283 316 17 19 358 292 205 203 222 253 257 258 235 218 202 197 196 198 212 208 203 200 208 221 240 238 236 232 228 226 229 228 231 232 231 233 237 239 237 238 241
217 223 260 253 78 44 311 266 245 223 211 219 260 261 252 239 217 205 201 204 212 214 205 202 212 213 234 257 258 252 241 228 227 225 227 232 233 237 240 243 242 245 245
197 220 259 308 356 248 254 264 239 238 227 222 241 257 263 257 230 210 210 220 216 204 199 198 200 212 238 248 260 261 264 254 241 229 223 223 227 238 242 239 242 249 250
200 217 241 241 224 241 248 264 268 248 243 245 244 248 256 262 242 217 214 227 216 202 205 209 205 202 227 245 262 270 263 250 251 244 230 224 222 223 228 235 240 246 254
222 242 240 232 234 239 248 293 305 300 279 271 258 257 255 257 257 236 223 215 207 201 211 213 210 213 215 224 272 300 292 273 254 244 237 231 222 219 219 221 228 242 252
275 293 266 251 257 234 243 264 286 282 278 279 266 262 256 253 252 239 251 224 211 205 210 213 207 201 217 191 353 325 312 291 262 251 238 232 232 224 213 216 220 225 243
246 275 283 266 261 249 236 223 222 240 248 249 260 269 256 250 256 257 242 237 225 213 208 206 190 194 235 198 180 300 300 306 294 273 255 238 239 234 224 222 219 222 232
252 253 267 262 262 257 245 224 262 291 302 306 289 269 268 256 253 248 240 241 234 217 213 212 200 199 214 239 204 188 205 236 294 283 261 252 245 245 244 232 221 220 229
243 249 249 252 256 258 247 220 219 234 258 264 259 262 273 257 251 249 238 240 236 236 225 218 209 222 201 218 246 243 237 223 226 279 287 280 271 251 241 239 226 225 224
245 249 249 247 253 257 254 237 228 245 251 261 262 258 261 264 258 261 250 235 234 237 234 227 225 225 215 217 223 239 257 273 243 225 263 278 285 266 247 234 226 225 227
264 261 256 248 256 253 250 245 233 235 242 253 272 266 272 283 281 276 275 249 240 234 232 224 222 224 227 225 230 229 232 230 233 224 239 254 268 276 269 247 233 228 224